This is the latest recevied weather packets stored in our database for station/object DL9LAF-4. If no packets are shown the sender has not sent any weather packets the latest 10 day(s).
| Time | Temp. | Humidity | Pressure | Rain* | Wind** | Luminosity | Snow |
|---|---|---|---|---|---|---|---|
| 1777635353 | 21.11° C | 45% | 1005.2 hPa | 0 mm | - | - | - |
| 1777634753 | 20.56° C | 46% | 1005.4 hPa | 0 mm | - | - | - |
| 1777634154 | 20.56° C | 45% | 1005.5 hPa | 0 mm | - | - | - |
| 1777633554 | 20° C | 47% | 1005.5 hPa | 0 mm | - | - | - |
| 1777632953 | 19.44° C | 47% | 1005.7 hPa | 0 mm | - | - | - |
| 1777632354 | 19.44° C | 48% | 1005.9 hPa | 0 mm | - | - | - |
| 1777631753 | 19.44° C | 49% | 1006 hPa | 0 mm | - | - | - |
| 1777631153 | 19.44° C | 50% | 1006 hPa | 0 mm | - | - | - |
| 1777630553 | 18.89° C | 50% | 1006 hPa | 0 mm | - | - | - |
| 1777629953 | 18.89° C | 51% | 1006.2 hPa | 0 mm | - | - | - |
| 1777629353 | 18.33° C | 52% | 1006.4 hPa | 0 mm | - | - | - |
| 1777628753 | 18.33° C | 53% | 1006.5 hPa | 0 mm | - | - | - |
| 1777628153 | 17.78° C | 54% | 1006.7 hPa | 0 mm | - | - | - |
| 1777627553 | 17.78° C | 55% | 1006.7 hPa | 0 mm | - | - | - |
| 1777626953 | 17.22° C | 56% | 1006.7 hPa | 0 mm | - | - | - |
| 1777626353 | 16.67° C | 56% | 1006.9 hPa | 0 mm | - | - | - |
| 1777625754 | 16.67° C | 57% | 1006.9 hPa | 0 mm | - | - | - |
| 1777625153 | 16.11° C | 57% | 1007.2 hPa | 0 mm | - | - | - |
| 1777624553 | 16.11° C | 59% | 1007.2 hPa | 0 mm | - | - | - |
| 1777623953 | 15.56° C | 60% | 1007 hPa | 0 mm | - | - | - |
| 1777623353 | 15° C | 60% | 1007.2 hPa | 0 mm | - | - | - |
| 1777622753 | 15° C | 61% | 1007.2 hPa | 0 mm | - | - | - |
| 1777622153 | 14.44° C | 64% | 1007.2 hPa | 0 mm | - | - | - |
| 1777621554 | 13.89° C | 65% | 1007.2 hPa | 0 mm | - | - | - |
| 1777620953 | 13.33° C | 66% | 1007 hPa | 0 mm | - | - | - |
* Rain latest hour (hover to see other rain measurements)
** Current wind speed in m/s (hover to see current wind gust speed)